Weather in Katsina

Nigeria     12°59′36″N   7°35′55″E
temp.,
°C
wind,
m/s
gust,
m/s
humid.,
%
clouds,
%
prec.,
mm/h
press.,
hPa
HPBL,
m
18 april, sun
sun1801:00+28ese228100 0.0 100712
04:00+28ne338100 0.0 100718
07:00+27s4711100 0.0 1009125
10:00+34sw5525100 0.0 1010777
13:00+38se0212100 0.0 10072160
16:00+39se13887 0.0 10053349
19:00+34nnw22997 0.0 100614
22:00+31e33834 0.0 100816
19 april, mon
mon1901:00+30ese22942 0.0 100711
04:00+30se33105 0.0 100620
07:00+27sw5101984 0.0 1008186
10:00+34sw5628100 0.0 1010886
13:00+38sw3314100 0.0 10072602
16:00+39sse3211100 0.0 10043662
19:00+35sse441486 0.0 100536
22:00+33s331688 0.0 100716
20 april, tue
tue2001:00+32s2216100 0.0 100511
04:00+29ene111742 0.0 100411
07:00+28sw4112894 0.0 1008241
10:00+35sw88280 0.0 10081145
13:00+39wsw421617 0.0 10053298
16:00+40ssw121227 0.0 10024266
19:00+37w231796 0.0 100382
22:00+33nw33230 0.0 100521
21 april, wed
wed2101:00+32w45262 0.0 100575
04:00+30sw6133591 0.0 1005444
07:00+28ssw71352100 0.0 1008577
10:00+32wsw7841100 0.0 10091104
13:00+38w662759 0.0 10061901
16:00+40wnw431960 0.0 10034051
19:00+35nw61026100 0.0 1004490
22:00+29ssw91244100 0.6 1007312
22 april, thu
thu2201:00+28sw51053100 0.6 1006233
04:00+29w4949100 0.0 1006274
07:00+29wsw5104690 0.0 1008348
10:00+32w793798 0.0 1010932
13:00+36wnw7825100 0.0 10071522
16:00+38w3416100 0.0 10042232
19:00+34wsw3321100 0.0 100337
22:00+31ssw3334100 0.0 100621